Location: Franzen
(48.6167°N, 15.3833°E)
Time: 14:17:32
(UTC+00:00)

Daily predictions for brighter satellites

Satellite Brightness Start Highest point End
(mag) Time Altitude Azimuth Time Altitude Azimuth Time Altitude Azimuth
Cosmos 1356 4.0 18:27:27 10° N 18:30:41 39° ENE 18:33:55 10° SE
Cosmos 1408 3.1 18:28:21 10° NNW 18:31:53 62° W 18:35:23 10° S
NOSS 0 Rocket 4.0 18:26:34 10° NNW 18:32:49 78° ENE 18:39:04 10° SE
Cosmos 1953 Rocket 4.5 18:30:04 10° NNW 18:34:19 52° W 18:38:31 10° S
Cosmos 2058 Rocket 3.1 18:32:48 10° S 18:37:09 89° ESE 18:41:33 10° N
RESURS DK-1 2.5 18:33:17 10° SSW 18:37:26 83° WNW 18:41:36 10° NNE
Cosmos 1140 Rocket 4.4 18:35:33 10° SSE 18:39:44 26° E 18:43:57 10° NE
Cosmos 405 Rocket 2.9 18:37:15 10° N 18:41:14 58° ENE 18:45:05 10° SSE
Cosmos 909 Rocket 4.1 18:35:09 10° SSW 18:41:22 64° ESE 18:47:46 10° NE
Cosmos 2237 Rocket 2.4 18:37:19 10° NNW 18:42:56 61° ENE 18:48:30 10° SE
Cosmos 1812 Rocket 4.3 18:40:57 10° SSE 18:44:56 33° E 18:48:57 10° NNE
Helios 1A Rocket 4.2 18:42:08 10° S 18:46:02 43° W 18:49:59 10° NNW
DMSP B5D2-2 4.3 18:42:20 10° NNE 18:47:36 77° WNW 18:52:51 10° SSW
Cosmos 1818 3.6 18:42:30 10° SW 18:47:57 87° ESE 18:53:28 10° NE
Cosmos 482 Debris 4.4 18:46:56 10° W 18:49:24 34° N 18:51:16 10° ENE
Cosmos 192 4.4 18:45:29 10° NNW 18:50:28 76° ENE 18:55:25 10° SSE
Cosmos 1825 2.8 18:50:16 10° NNW 18:54:00 59° W 18:57:43 10° S
Exosat Rocket 4.2 18:51:32 10° NNW 18:57:49 63° WSW 19:02:50 10° S
Cosmos 2227 Rocket 2.8 18:54:17 10° SSE 18:59:17 33° ESE 19:04:19 10° NE
Cosmos 1655 Rocket 4.3 18:53:49 10° N 18:59:54 48° ENE 19:05:53 10° SSE
CZ-4C R/B 4.3 18:55:12 10° W 18:59:57 29° NNW 19:05:34 10° NE
Abrixas rocket 0.3 18:58:31 10° WSW 19:00:05 61° SSE 19:00:44 27° E
BREEZE-M DEB (TANK) 3.9 18:58:23 10° WSW 19:01:36 88° SSE 19:10:26 10° ENE
ATLAS 2AS CENTAUR R/B 3.7 18:54:06 10° WSW 19:01:55 59° NW 19:09:32 10° NE
Cosmos 2058 3.7 18:59:30 10° NNW 19:03:37 54° W 19:07:39 10° S
Cosmos 2297 Rocket 2.4 19:00:27 10° S 19:05:49 47° ESE 19:11:14 10° NE
Cosmos 1633 2.9 19:02:54 10° N 19:06:24 47° ENE 19:09:14 14° SSE
FALCON 9 DEB 3.8 19:04:34 10° SSW 19:07:14 27° SE 19:09:24 13° E
IRIDIUM 106 4.4 19:02:14 10° SSE 19:07:20 59° E 19:12:29 10° N
Lacrosse 5 rocket 3.3 19:05:12 10° NW 19:08:45 26° N 19:12:28 10° ENE
FALCON 9 DEB 3.4 19:09:05 10° SSW 19:11:53 35° SE 19:14:19 13° E
Resurs 01 Rocket 1.7 19:08:36 12° SSE 19:12:42 61° ENE 19:17:07 10° N
Resurs 1-3 3.7 19:10:04 10° SSE 19:14:27 81° WSW 19:18:52 10° NNW
Genesis I 3.2 19:10:46 10° NW 19:14:47 79° NE 19:17:40 18° SE
Cosmos 2219 3.3 19:09:34 10° S 19:14:57 50° ESE 19:20:23 10° NE
Meteor 2-14 Rocket 4.4 19:09:11 10° N 19:15:14 68° ENE 19:21:13 10° SSE
Cosmos 2333 Rocket 4.3 19:11:48 10° NW 19:16:19 24° WSW 19:20:46 10° SSW
Meteor 1-4 Rocket 4.2 19:16:24 16° E 19:16:45 16° E 19:19:00 10° NE
BREEZE-M DEB (TANK) 3.9 19:12:43 10° W 19:16:52 87° N 19:32:27 10° E
SJ-6B 4.2 19:15:04 10° SSW 19:18:32 36° W 19:22:04 10° NNW
Cosmos 2084 Rocket 3.5 19:19:28 10° SSW 19:23:14 43° SE 19:27:05 10° NE
Cosmos 389 Rocket 2.8 19:19:55 10° SSW 19:23:26 70° WNW 19:27:01 10° N
Cosmos 1190 Rocket 4.1 19:18:39 10° S 19:23:42 52° ESE 19:28:46 10° NNE
FALCON 9 DEB 3.0 19:20:59 10° SW 19:23:55 47° SSE 19:26:05 16° ENE
Ariane Rocket 3.5 19:19:54 10° S 19:24:53 59° WSW 19:29:54 10° NNW
Terra 3.5 19:25:00 14° E 19:27:16 19° ENE 19:30:33 10° NNE
Cosmos 614 Rocket 4.4 19:22:13 10° SSW 19:27:19 65° WNW 19:32:25 10° NNE
FALCON 9 DEB 4.1 19:27:19 10° W 19:30:38 48° NNW 19:34:00 10° ENE
ATLAS 3B R/B 4.0 19:24:57 10° NW 19:31:17 36° WSW 19:37:49 10° S
Cosmos 2279 Rocket 4.2 19:27:29 10° SSW 19:33:40 76° W 19:39:54 10° N
SPOT 5 3.9 19:34:55 20° ESE 19:37:04 29° ENE 19:41:13 10° N
SPOT 1/Viking Rocket 3.7 19:33:39 20° SE 19:37:10 59° ENE 19:42:19 10° N
Cosmos 1980 4.4 19:33:37 10° NW 19:39:08 52° WSW 19:44:12 12° S
USA 215 3.4 19:34:16 17° ESE 19:39:30 70° NNE 19:46:01 10° NW
Cosmos-2242 2.9 19:35:49 12° S 19:39:42 66° E 19:43:59 10° NNE
SL-16 R/B 2.4 19:34:19 10° NNW 19:39:59 62° ENE 19:43:26 24° SE
Cosmos 2151 3.1 19:36:28 10° NNW 19:40:48 77° W 19:44:09 16° S
Meteor 2-21 Rocket 4.4 19:35:16 10° N 19:41:22 82° E 19:46:19 16° SSE
Cosmos 676 Rocket 4.2 19:37:14 10° S 19:42:08 46° ESE 19:47:05 10° NNE
SPOT 3 Rocket 3.7 19:40:39 14° S 19:45:06 75° WSW 19:50:18 10° NNW
FALCON 9 DEB 2.7 19:42:41 10° SW 19:45:42 59° SSE 19:46:41 36° E
COSMOS 2455 3.1 19:43:29 10° S 19:49:09 46° ESE 19:54:53 10° NE
Meteor 2-16 Rocket 4.4 19:45:31 10° N 19:51:43 83° E 19:56:11 20° SSE
SL-4 R/B 2.2 19:48:21 10° SW 19:52:42 62° SSE 19:57:21 10° ENE
BREEZE M DEB (TANK) 4.2 19:52:03 10° SSW 19:55:50 46° SE 20:07:21 10° ENE
ERS-1 Rocket 3.5 19:53:53 28° ESE 19:56:04 45° ENE 20:00:50 10° N
Cosmos 1408 Rocket 4.3 19:52:40 10° N 19:56:41 36° ENE 19:57:46 31° ESE
IGS 5A 4.0 19:54:20 19° S 19:57:12 57° W 20:01:19 10° NNW
Cosmos 2266 Rocket 4.1 19:51:10 10° N 19:57:34 81° W 20:02:36 17° S
Landsat 7 4.1 19:55:13 19° S 19:58:34 67° WSW 20:03:20 10° NNW
OBJECT-B 3.9 19:57:43 10° WSW 19:58:41 11° W 19:59:41 10° WNW
Timation 1 Rocket 4.3 19:58:19 10° S 20:04:10 59° ESE 20:10:02 10° NE
Cosmos 2221 3.4 20:05:06 29° E 20:05:08 29° E 20:08:51 10° NNE
Cosmos 1862 4.1 20:01:45 10° N 20:05:24 33° ENE 20:05:50 32° E
Cosmos 1943 4.4 20:00:40 10° NNW 20:05:37 30° NE 20:08:18 21° E
ARIANE 5 R/B 2.5 20:04:04 36° SSE 20:05:49 75° ENE 20:10:12 10° N
USA 245 2.8 20:05:50 46° S 20:06:45 81° WSW 20:09:46 10° NNW
Cosmos 2344 4.3 20:00:13 10° WSW 20:07:28 54° NW 20:15:38 10° NE
Cosmos 407 Rocket 4.2 20:02:54 10° SW 20:07:57 55° WNW 20:13:03 10° NNE
Meteor 2-3 Rocket 4.3 20:07:56 10° NNW 20:13:34 56° W 20:17:47 17° SSW
Meteor 1-27 4.3 20:14:09 13° SSW 20:19:26 81° WNW 20:25:19 10° N
Cosmos 44 Rocket 3.3 20:14:38 10° SSW 20:19:40 66° ESE 20:24:51 10° NE
TSX-5 4.2 20:18:59 45° SSE 20:19:49 51° ESE 20:23:43 10° NE
Nadezhda 2 Rocket 4.5 20:14:01 10° N 20:20:16 68° E 20:22:56 35° SSE
Cosmos 1140 Rocket 4.4 20:16:18 10° SW 20:21:14 48° WNW 20:26:14 10° NNE
JB-3 4.3 20:18:46 10° NNE 20:22:51 65° E 20:23:23 58° SE
CZ-2C R/B 4.2 20:19:34 10° N 20:23:56 58° WNW 20:27:43 13° SSW
Cosmos 1954 Rocket 4.0 20:20:03 10° SSW 20:25:13 79° WNW 20:30:25 10° NNE
Cosmos 1741 Rocket 4.4 20:24:56 40° ESE 20:25:28 42° ESE 20:30:25 10° NE
Cosmos 2237 Rocket 4.0 20:22:06 10° NW 20:26:34 24° WSW 20:30:47 11° SSW
Timation 2 Rocket 4.4 20:21:56 10° SW 20:28:25 64° NW 20:34:40 10° NNE
Cosmos 1850 Rocket 4.2 20:27:53 44° SE 20:28:30 46° ESE 20:33:29 10° NNE
Cosmos 1606 4.5 20:31:58 20° ENE 20:31:58 20° ENE 20:33:43 10° NE
Meteor 2-15 4.3 20:29:12 31° S 20:32:13 77° E 20:38:17 10° NNE
Cosmos 1500 Rocket 3.9 20:29:17 10° N 20:33:37 47° ENE 20:33:58 46° E
Cosmos 2263 Rocket 2.9 20:34:38 33° E 20:34:38 33° E 20:39:06 10° NE
Spot 2 Rocket 3.8 20:32:07 32° SSW 20:34:22 60° W 20:39:24 10° NNW
CARTOSAT-1 3.8 20:33:28 45° SSW 20:34:39 65° W 20:38:57 10° NNW
Cosmos 1766 Rocket 4.2 20:30:36 10° NNW 20:34:48 50° W 20:36:22 33° SSW
Aureole 1 Rocket 3.9 20:35:06 42° ESE 20:35:12 43° ESE 20:39:36 10° NE
USA 229 DEB 4.1 20:28:39 10° NW 20:35:52 66° NE 20:39:35 32° ESE
USA 229 4.1 20:28:45 10° NW 20:35:58 66° NE 20:39:42 32° ESE
BREEZE M DEB (TANK) 2.0 20:30:47 10° W 20:36:28 80° N 20:36:34 79° NNE
Cosmos 1244 Rocket 4.5 20:31:02 10° N 20:37:26 82° E 20:39:59 39° SSE
FALCON 9 DEB 4.4 20:39:52 10° W 20:41:38 30° W 20:41:38 30° W
Cosmos 2082 3.7 20:37:32 10° SSW 20:43:09 79° WNW 20:48:48 10° NNE
Cosmos 2227 Rocket 3.2 20:37:44 10° SW 20:43:11 47° NW 20:48:39 10° NNE
H-2A R/B 3.5 20:40:42 10° NNE 20:44:42 61° E 20:44:42 61° E
FALCON 9 DEB 4.5 20:44:35 10° W 20:46:28 32° WNW 20:46:28 32° WNW
Lacrosse 5 rocket 2.4 20:44:36 10° NW 20:48:43 43° NNE 20:49:58 34° ENE
Resurs 01 Rocket 4.1 20:46:43 10° SW 20:49:36 17° W 20:52:28 10° NW
Cosmos 2297 Rocket 3.8 20:44:53 10° WSW 20:50:02 35° NW 20:55:13 10° NNE
Cosmos 1553 Rocket 3.9 20:48:27 47° SSE 20:50:03 64° E 20:56:06 10° NNE
Cosmos 468 Rocket 4.2 20:45:25 10° NNW 20:50:29 61° WSW 20:51:46 46° SSW
Meteor 1-4 Rocket 3.9 20:50:30 29° WSW 20:51:26 35° WNW 20:54:43 10° N
NOSS 3-1 (A) 4.1 20:46:31 10° NW 20:53:52 75° NE 20:57:37 37° SE
Cosmos 1603 3.8 20:48:58 10° NNW 20:54:41 64° ENE 20:55:59 50° ESE
Cosmos 841 Rocket 3.4 20:50:12 10° NNW 20:55:26 74° ENE 20:56:15 61° SE
Cosmos 1417 Rocket 4.5 20:59:49 50° SSE 21:01:21 67° E 21:07:33 10° NNE
Cosmos 1763 Rocket 4.0 20:58:24 10° NNW 21:03:17 49° WSW 21:04:17 42° SW
Terra 1.9 21:03:52 59° SSW 21:04:32 67° WSW 21:09:18 10° NNW
FALCON 9 DEB 4.5 21:04:42 10° WNW 21:07:41 39° N 21:07:41 39° N
Cosmos 540 Rocket 3.3 21:06:02 10° NNW 21:11:10 76° WSW 21:11:41 68° SSW
Cosmos 1814 Rocket 3.9 21:05:53 10° NNW 21:11:13 71° ENE 21:11:45 65° ESE
Cosmos 921 Rocket 3.0 21:08:10 10° NNW 21:12:21 76° NNE 21:12:21 76° NNE
SPOT 5 3.7 21:14:08 35° WSW 21:15:00 39° W 21:19:32 10° NNW
NOSS 3-1 (C) 4.2 21:10:14 10° NW 21:17:38 65° SW 21:20:23 44° S
Cosmos 1842 Rocket 4.3 21:20:26 44° WSW 21:21:08 48° WNW 21:25:30 10° N
USA 215 3.6 21:21:36 44° SSW 21:22:43 48° SW 21:29:02 10° WNW
SL-16 R/B 3.8 21:19:10 10° NW 21:23:38 24° WSW 21:25:19 21° SW
Cosmos 1174 4.4 21:19:30 10° NNW 21:23:25 54° N 21:23:25 54° N
Cosmos 1437 Rocket 4.3 21:29:54 30° NNE 21:29:54 30° NNE 21:31:59 10° NNE
Cosmos 2315 Rocket 4.3 21:31:12 49° ESE 21:31:39 50° E 21:37:46 10° NNE
SL-4 R/B 2.7 21:27:56 10° W 21:32:29 64° N 21:33:32 49° NE
ERS-1 Rocket 4.4 21:33:52 25° WSW 21:35:01 27° W 21:39:18 10° NW
COSMOS 2455 4.0 21:29:29 10° WSW 21:35:11 42° NW 21:40:55 10° NNE
Meteor 1-25 Rocket 4.2 21:30:28 10° N 21:36:14 73° ENE 21:36:42 69° ESE
ATLAS 5 CENTAUR R/B 4.2 21:35:57 10° NNW 21:39:56 22° NNE 21:44:27 10° ENE
Cosmos 2227 4.1 21:40:44 70° SW 21:41:27 88° WNW 21:47:15 10° NNE
Sich 1 3.5 21:37:59 10° N 21:41:28 58° NNW 21:41:28 58° NNW
Cosmos 1805 Rocket 4.0 21:38:16 10° NNW 21:41:58 56° NW 21:41:58 56° NW
Cosmos 2221 4.0 21:41:54 27° W 21:42:39 29° WNW 21:46:25 10° N
Meteor 1-20 Rocket 4.1 21:41:51 10° NNW 21:47:41 88° W 21:48:01 80° S
Cosmos 1943 3.4 21:44:29 10° NW 21:50:00 56° WSW 21:50:06 56° WSW
Cosmos 1745 Rocket 4.3 21:46:06 10° NNW 21:52:15 56° W 21:53:25 49° SW
SeaSat 1 2.9 21:47:24 10° NE 21:51:19 52° ENE 21:51:19 52° ENE
Cosmos 1570 Rocket 4.4 21:48:14 10° NNW 21:53:15 52° W 21:53:15 52° W
Cosmos 1709 Rocket 3.8 21:51:20 10° N 21:57:34 84° W 21:58:09 74° SSW
Iridium 4 Rocket 3.9 21:58:16 54° ENE 21:58:16 54° ENE 22:03:05 10° N
Meteor 1-26 Rocket 4.3 21:59:48 66° E 21:59:48 66° E 22:05:29 10° NNE
Spot 4 4.0 22:00:15 73° NNW 22:00:15 73° NNW 22:04:40 10° NNW
Cosmos 1633 Rocket 3.8 21:58:53 10° N 22:02:12 51° N 22:02:12 51° N
Cosmos 883 Rocket 4.4 22:06:43 69° SW 22:07:29 79° W 22:13:49 10° N
Cosmos 1666 Rocket 4.4 22:09:31 10° NNW 22:12:59 49° NW 22:12:59 49° NW
Cosmos 2263 Rocket 3.0 22:16:15 35° W 22:17:57 46° NW 22:23:20 10° NNE
Cosmos 1328 Rocket 4.5 22:22:32 46° NNE 22:22:32 46° NNE 22:25:44 10° NNE
Cosmos 968 Rocket 3.7 22:22:53 65° NE 22:22:53 65° NE 22:27:25 10° NNE
NOSS 2-2 (D) 4.4 22:19:55 10° NW 22:25:10 79° NE 22:25:44 72° E
Cosmos 1782 4.3 22:28:48 37° N 22:28:48 37° N 22:31:20 10° N
Lacrosse 5 rocket 3.3 22:23:44 10° WNW 22:25:35 24° WNW 22:25:35 24° WNW
COBE Rocket 4.3 22:29:10 58° NNE 22:29:10 58° NNE 22:33:23 10° N
Cosmos 1844 Rocket 3.1 22:30:56 51° ENE 22:30:56 51° ENE 22:35:26 10° NE
Cosmos 1151 Rocket 4.1 22:34:17 43° NNW 22:34:17 43° NNW 22:37:26 10° N
Thor Agena Rocket 4.2 22:28:16 10° NNE 22:32:22 46° ENE 22:32:22 46° ENE
ALOS 2 3.6 22:35:37 44° NW 22:35:37 44° NW 22:38:46 10° NNW
CZ-4C R/B 4.1 22:35:01 10° NW 22:41:08 36° NNE 22:48:17 10° E
Meteor 1-10 Rocket 4.5 22:51:59 58° ENE 22:51:59 58° ENE 22:56:58 10° NNE
Cosmos 2082 Rocket 4.3 22:47:33 10° N 22:51:49 21° NE 22:56:05 10° E
Cosmos 2228 Rocket 4.4 22:55:22 34° NE 22:55:22 34° NE 22:58:12 10° NNE
Cosmos 1833 Rocket 4.0 22:49:01 10° NNW 22:54:09 34° NE 22:56:04 27° E
Cosmos 1486 Rocket 4.3 22:57:26 65° NW 22:57:26 65° NW 23:02:30 10° NNE
Meteor 1-5 Rocket 4.3 22:56:17 10° NNW 23:01:31 65° WNW 23:01:31 65° WNW
Cosmos 2154 Rocket 3.9 22:57:22 10° N 23:03:47 82° E 23:04:10 78° SE
Meteor 2-6 Rocket 4.2 23:11:23 71° NW 23:11:23 71° NW 23:16:25 10° N
SL-4 R/B 4.4 23:07:52 10° WNW 23:09:09 18° WNW 23:09:09 18° WNW
Cosmos 2184 Rocket 4.1 23:08:36 10° NNW 23:14:50 60° W 23:14:58 60° W
Cosmos 2327 Rocket 4.3 23:09:30 10° N 23:15:50 86° W 23:16:08 81° SSW
SJ 16-02 3.4 23:17:22 20° ENE 23:17:22 20° ENE 23:19:34 10° NE
Cosmos 2278 Rocket 3.5 23:19:30 27° E 23:19:30 27° E 23:23:42 10° NE
USA 305 4.2 23:25:52 38° NNE 23:25:52 38° NNE 23:28:52 10° ENE
ATLAS 5 CENTAUR R/B 2.6 23:20:07 10° NW 23:25:30 63° NE 23:27:06 47° ESE
SeaSat 1 4.2 23:25:29 10° N 23:29:31 26° NW 23:31:05 22° WNW
Cosmos 2341 Rocket 4.1 23:23:50 10° N 23:30:12 70° E 23:31:01 63° SE
Cosmos 1295 Rocket 4.4 23:24:11 10° NNW 23:30:27 77° W 23:30:44 76° SW
SL-8 Rocket 4.3 23:26:18 10° N 23:32:31 58° ENE 23:33:40 51° ESE
Cosmos 1707 Rocket 4.5 23:42:09 44° NE 23:42:09 44° NE 23:45:23 10° NNE
Cosmos 1844 4.1 23:41:40 52° WNW 23:42:13 55° NW 23:47:51 10° NNE
USA 306 4.0 23:43:11 43° N 23:43:11 43° N 23:46:58 10° ENE
USA 281 3.1 23:43:08 68° SW 23:43:36 70° WSW 23:50:11 10° NNW
COSMOS 2406 3.2 23:38:44 10° NNW 23:44:26 73° ENE 23:44:55 69° E
Cosmos 158 Rocket 4.4 23:40:04 10° NNW 23:44:53 51° ENE 23:45:07 51° ENE
Helios 1B rocket 4.4 23:45:03 10° NE 23:47:40 21° E 23:47:40 21° E
Cosmos 962 Rocket 4.3 23:46:05 10° NNW 23:52:16 75° W 23:52:36 73° SW
Gbstr 26 Del rocket 3.7 23:53:47 78° SSE 23:53:47 78° SSE 23:59:19 10° ENE
